Regional Weather Roundup
Issued by NWS Cleveland, OH

Home | Current Version | Previous Version | Graphics & Text | Print | Product List | Glossary On
Versions: 1 2 3 4 5 6 7 8 9 10 11 12 13 14 15 16 17 18 19 20 21 22 23 24 25 26 27 28 29 30 31 32 33 34 35 36 37 38 39 40 41 42 43 44 45 46 47 48 49 50
000
ASUS41 KCLE 010602
RWRCLE
OHIO REGIONAL WEATHER ROUNDUP
NATIONAL WEATHER SERVICE CLEVELAND, OH
200 AM EDT SAT NOV 01 2014

NOTE: "FAIR" INDICATES FEW OR NO CLOUDS BELOW 12,000 FEET WITH NO
SIGNIFICANT WEATHER AND/OR OBSTRUCTIONS TO VISIBILITY.

OHZ001>008-015>018-024>027-034-035-043-044-010700-
   NORTHWEST OHIO

CITY           SKY/WX    TMP DP  RH WIND       PRES   REMARKS
DEFIANCE       LGT SNOW  33  28  81 N17G28    30.13S WCI  22
FINDLAY        LGT SNOW  34  31  88 N18G26    30.04R FOG     WCI  23
TOLEDO EXPRESS CLOUDY    34  31  88 N21G30    30.09R WCI  22
TOLEDO EXEC    MIX PCPN  37  32  82 N20G29    30.09R
LIMA           LGT SNOW  33  50 100 N21G30    30.06R WCI  21
$$

OHZ009>014-019>023-028>033-038-089-010700-
   NORTHEAST OHIO

CITY           SKY/WX    TMP DP  RH WIND       PRES   REMARKS
CLE-HOPKINS    LGT RAIN  43  41  93 SE5       29.95S
CLE-LAKEFRONT    N/A    N/A N/A N/A MISG        N/A
CUY CO. ARPT   NOT AVBL
LORAIN-ELYRIA  LGT RAIN  42  39  89 N23G36    29.95S
ASHTABULA      CLOUDY    41  39  93 CALM      29.94S FOG
AKRON-CANTON   LGT RAIN  43  40  89 N7        29.91R FOG
WOOSTER        LGT RAIN  43  40  89 N7        29.93R FOG
MANSFIELD      LGT RAIN  40  39  97 N9        29.94R
YOUNGSTOWN     MOCLDY    40  39  97 NE6       29.91S FOG
$$

OHZ042-051>053-060>062-070>072-077>081-010700-
  SOUTHWEST OHIO

CITY           SKY/WX    TMP DP  RH WIND       PRES   REMARKS
CINC-COVINGTON CLOUDY    36  30  79 N21G32    30.04R
CINC-LUNKEN    CLOUDY    37  30  75 N18G26    30.06R
HAMILTON       CLOUDY    36  30  79 N13G30    30.07R
DAYTON         FLURRIES  34  30  85 N20G35    30.05R WCI  23
WRIGHT-PAT AFB FLURRIES  34  32  93 N20G30    30.02S WCI  22
DAYTON GENERAL FLURRIES  35  30  82 N22G37    30.02R WCI  23
WILMINGTON     LGT SNOW  33  30  88 N23G32    29.99R FOG     WCI  21
$$

OHZ036-037-039>041-045>050-054>059-063>069-073>076-082>088-010700-
  CENTRAL AND SOUTHEAST OHIO

CITY           SKY/WX    TMP DP  RH WIND       PRES   REMARKS
COLUMBUS       LGT RAIN  37  37 100 N18G24    29.94S
OSU AIRPORT    MIX PCPN  36  33  89 N18G28    29.96R
BOLTON FIELD   CLOUDY    36  33  92 N18       29.96S
RICKENBACK AFB NOT AVBL
NEWARK         LGT RAIN  40  37  89 N8        29.92R
MARION         MIX PCPN  35  33  92 N17G28    29.98R WCI  25
LANCASTER      LGT RAIN  39  36  89 N10       29.93R
ZANESVILLE     CLOUDY    41  39  93 NW6       29.90R FOG
NEW PHILLY     LGT RAIN  44  41  89 N3        29.91S FOG
$$



USA.gov is the U.S. government's official web portal to all federal, state and local government web resources and services.